This demonstration page uses our WeatherBlox Daily Observations layout. Learn more.

Left ArrowRight Arrow

Hourly Observations for August 4, 2019

Temp ( °F °C ) Dew Point ( °F °C ) Humidity (%) Winds ( mph kmh ) Pressure ( in mb ) Visibility ( mi km ) Precip ( " mm )
12:59 am 00:59 Clear 74 23.3 71 21.7 91 91 SW 5 7 29.97 1015 9 14 0.00 0.00
1:59 am 01:59 Clear 74 23.3 71 21.7 91 91 SW 3 6 29.96 1015 10 16 0.00 0.00
2:59 am 02:59 Clear 73 22.8 71 21.7 94 94 Calm 29.96 1015 9 14 0.00 0.00
3:59 am 03:59 Clear 73 22.8 71 21.7 94 94 Calm 29.95 1014 10 16 0.00 0.00
4:59 am 04:59 Clear 74 23.3 71 21.7 91 91 Calm 29.95 1014 10 16 0.00 0.00
5:59 am 05:59 Partly Cloudy 73 22.8 71 21.7 94 94 Calm 29.95 1014 9 14 0.00 0.00
6:59 am 06:59 Partly Cloudy 76 24.4 73 22.8 91 91 W 3 6 29.96 1015 9 14 0.00 0.00
7:59 am 07:59 Mostly Sunny 78 25.6 73 22.8 85 85 W 8 13 29.97 1015 9 14 0.00 0.00
8:59 am 08:59 Mostly Sunny 80 26.7 73 22.8 79 79 W 7 11 29.97 1015 10 16 0.00 0.00
9:59 am 09:59 Partly Cloudy 83 28.3 73 22.8 72 72 WNW 7 11 29.96 1015 9 14 0.00 0.00
10:59 am 10:59 Partly Cloudy 85 29.4 71 21.7 63 63 W 8 13 29.97 1015 9 14 0.00 0.00
11:59 am 11:59 Partly Cloudy 87 30.6 71 21.7 59 59 NW 8 13 29.96 1015 9 14 0.00 0.00
12:59 pm 12:59 Partly Cloudy 89 31.7 70 21.1 53 53 VRB 6 9 29.95 1014 9 14 0.00 0.00
1:59 pm 13:59 Mostly Cloudy 91 32.8 69 20.6 49 49 Calm 29.93 1014 9 14 0.00 0.00
2:59 pm 14:59 Mostly Cloudy 91 32.8 72 22.2 54 54 E 7 11 29.91 1013 9 14 0.00 0.00
3:26 pm 15:26 Mostly Cloudy with Thunderstorms 90 32.2 72 22.2 56 56 E 12 19 29.91 1013 9 14 0.00 0.00
3:59 pm 15:59 Cloudy with Thunderstorms 87 30.6 73 22.8 63 63 E 10 17 29.90 1013 9 14 0.00 0.00
4:39 pm 16:39 Windy with Storms Likely 78 25.6 71 21.7 79 79 NNW 20 31 29.98 1015 1 2 0.03 0.76
4:47 pm 16:47 Cloudy with Thunderstorms 71 21.7 69 20.6 94 94 NW 21 33 30.02 1017 1 1 0.30 7.62
4:56 pm 16:56 Cloudy with Strong Thunderstorms 72 22 70 21 94 94 WNW 14 22 30.01 1016 1 1 0.89 22.61
4:59 pm 16:59 Cloudy with Strong Thunderstorms 71 21.7 69 20.6 94 94 NW 9 15 29.99 1016 1 1 1.07 27.18
5:11 pm 17:11 Cloudy with Strong Thunderstorms 71 21.7 69 20.6 94 94 Calm 29.97 1015 1 2 0.21 5.33
5:25 pm 17:25 Cloudy with Thunderstorms 71 21.7 69 20.6 94 94 SSE 9 15 29.96 1015 2 2 0.24 6.10
5:43 pm 17:43 Cloudy with Thunderstorms 70 21.1 68 20 93 93 SSE 9 15 29.94 1014 2 3 0.24 6.10
5:59 pm 17:59 Cloudy with Thunderstorms 70 21.1 67 19.4 90 90 S 3 6 29.94 1014 7 11 0.24 6.10
6:36 pm 18:36 Mostly Cloudy with Light Rain 71 21.7 69 20.6 94 94 SSE 7 11 29.95 1014 5 8 0.00 0.00
6:59 pm 18:59 Mostly Cloudy 71 21.7 68 20 90 90 S 7 11 29.95 1014 10 16 0.00 0.00
7:59 pm 19:59 Mostly Cloudy with Light Rain 72 22.2 69 20.6 91 91 S 5 7 29.95 1014 9 14 0.00 0.00
8:59 pm 20:59 Mostly Cloudy 71 21.7 68 20 90 90 S 3 6 29.96 1015 10 16 0.00 0.00
9:59 pm 21:59 Cloudy 71 21.7 68 20 90 90 SW 6 9 29.96 1015 10 16 0.00 0.00
10:59 pm 22:59 Cloudy 72 22.2 69 20.6 91 91 SSW 3 6 29.96 1015 10 16 0.00 0.00
11:59 pm 23:59 Cloudy 72 22.2 69 20.6 91 91 W 3 6 29.96 1015 10 16 0.00 0.00

Powered by AerisWeather